Weather History for Olivia, MN

Change the Weather History Date:

Wednesday, January 8, 2014

  Actual Average (KRWF) Record (KRWF)
Temperature  
Mean Temperature -5 °F -  
Max Temperature 3 °F 19 °F 55 °F (2003)
Min Temperature -13 °F 0 °F -24 °F (1977)
Degree Days  
Heating Degree Days 70    
Moisture  
Dew Point -10 °F    
Average Humidity 74    
Maximum Humidity 85    
Minimum Humidity 66    
Precipitation  
Precipitation 0.00 in - - ()
Sea Level Pressure  
Sea Level Pressure 30.38 in    
Wind  
Wind Speed 4 mph (West)    
Max Wind Speed 15 mph    
Max Gust Speed -    
Visibility 10 miles    
Events      
Averages and records for this station are not official NWS values.
T = Trace of Precipitation, MM = Missing Value Source: NWS Daily Summary

Daily Weather History Graph

Daily Weather History Graph

Search for Another Location

Airport:

Trip Planner

Search our weather history database for the weather conditions in past years. The results will help you decide how hot, cold, wet, or windy it might be!

Date:

Astronomy

Jan. 08, 2014 Rise Set
Actual Time 7:56 AM CST 4:57 PM CST
Civil Twilight 7:23 AM CST 5:30 PM CST
Nautical Twilight 6:47 AM CST 6:06 PM CST
Astronomical Twilight 6:11 AM CST 6:42 PM CST
Moon 11:58 AM CST (1/8) 12:54 AM CST (1/8)
Length of Visible Light 10h 06m
Length of Day
9h 00m
First Quarter, 56% of the Moon is Illuminated
Jan 8
First Quarter
Jan 15
Full
Jan 23
Last Quarter
Jan 30
New
Feb 6
First Quarter

Hourly Weather History & Observations

Time (CST) Temp. Windchill Dew Point Humidity Pressure Visibility Wind Dir Wind Speed Gust Speed Precip Events Conditions
12:13 AM -4.0 °F -12.4 °F -9.4 °F 78% 30.26 in 10.0 mi NW 3.5 mph - N/A   Clear
12:33 AM -4.0 °F -14.6 °F -9.4 °F 78% 30.27 in 10.0 mi WNW 4.6 mph - N/A   Scattered Clouds
12:53 AM -4.0 °F -14.6 °F -11.2 °F 71% 30.28 in 10.0 mi NW 4.6 mph - N/A   Scattered Clouds
1:13 AM -4.0 °F -12.4 °F -9.4 °F 78% 30.28 in 10.0 mi NNW 3.5 mph - N/A   Clear
1:33 AM -4.0 °F -16.3 °F -11.2 °F 71% 30.28 in 10.0 mi NW 5.8 mph - N/A   Clear
1:53 AM -4.0 °F -14.6 °F -11.2 °F 71% 30.30 in 10.0 mi NW 4.6 mph - N/A   Clear
2:13 AM -5.8 °F -14.5 °F -11.2 °F 77% 30.30 in 10.0 mi NW 3.5 mph - N/A   Clear
2:33 AM -4.0 °F - -11.2 °F 71% 30.31 in 10.0 mi Calm Calm - N/A   Clear
2:53 AM -4.0 °F -14.6 °F -11.2 °F 71% 30.31 in 10.0 mi WNW 4.6 mph - N/A   Clear
3:13 AM -5.8 °F -16.7 °F -13.0 °F 71% 30.31 in 10.0 mi WNW 4.6 mph - N/A   Clear
3:33 AM -7.6 °F -18.8 °F -13.0 °F 77% 30.32 in 10.0 mi WNW 4.6 mph - N/A   Clear
3:53 AM -7.6 °F -16.5 °F -13.0 °F 77% 30.32 in 10.0 mi WNW 3.5 mph - N/A   Clear
4:13 AM -7.6 °F -20.6 °F -13.0 °F 77% 30.32 in 10.0 mi NW 5.8 mph - N/A   Clear
4:34 AM -7.6 °F -18.8 °F -14.8 °F 71% 30.32 in 10.0 mi NW 4.6 mph - N/A   Clear
4:53 AM -7.6 °F -18.8 °F -13.0 °F 77% 30.33 in 10.0 mi NW 4.6 mph - N/A   Clear
5:13 AM -7.6 °F -18.8 °F -13.0 °F 77% 30.33 in 10.0 mi West 4.6 mph - N/A   Clear
5:33 AM -7.6 °F -18.8 °F -14.8 °F 71% 30.33 in 10.0 mi WNW 4.6 mph - N/A   Clear
5:53 AM -9.4 °F -20.9 °F -14.8 °F 77% 30.33 in 10.0 mi NW 4.6 mph - N/A   Clear
6:13 AM -9.4 °F -20.9 °F -14.8 °F 77% 30.34 in 10.0 mi WNW 4.6 mph - N/A   Clear
6:33 AM -9.4 °F -20.9 °F -14.8 °F 77% 30.34 in 10.0 mi NW 4.6 mph - N/A   Clear
6:53 AM -9.4 °F - -14.8 °F 77% 30.36 in 10.0 mi Calm Calm - N/A   Clear
7:13 AM -9.4 °F - -14.8 °F 77% 30.36 in 10.0 mi Calm Calm - N/A   Clear
7:33 AM -9.4 °F -18.6 °F -14.8 °F 77% 30.37 in 10.0 mi West 3.5 mph - N/A   Clear
7:53 AM -9.4 °F -18.6 °F -14.8 °F 77% 30.38 in 10.0 mi West 3.5 mph - N/A   Clear
8:14 AM -13.0 °F - -18.4 °F 77% 30.39 in 10.0 mi Calm Calm - N/A   Clear
8:33 AM -9.4 °F -18.6 °F -14.8 °F 77% 30.40 in 10.0 mi WSW 3.5 mph - N/A   Clear
8:53 AM -9.4 °F - -14.8 °F 77% 30.41 in 10.0 mi Calm Calm - N/A   Clear
9:14 AM -7.6 °F - -13.0 °F 77% 30.42 in 10.0 mi Calm Calm - N/A   Clear
9:33 AM -7.6 °F - -13.0 °F 77% 30.43 in 10.0 mi Calm Calm - N/A   Clear
9:53 AM -4.0 °F - -9.4 °F 78% 30.43 in 10.0 mi Calm Calm - N/A   Clear
10:14 AM -4.0 °F -12.4 °F -9.4 °F 78% 30.44 in 10.0 mi NW 3.5 mph - N/A   Clear
10:33 AM -4.0 °F -14.6 °F -9.4 °F 78% 30.45 in 10.0 mi NNW 4.6 mph - N/A   Clear
10:53 AM -2.2 °F -10.4 °F -9.4 °F 71% 30.45 in 10.0 mi North 3.5 mph - N/A   Clear
11:13 AM -2.2 °F -10.4 °F -9.4 °F 71% 30.44 in 10.0 mi North 3.5 mph - N/A   Clear
11:33 AM -2.2 °F - -9.4 °F 71% 30.44 in 10.0 mi Calm Calm - N/A   Clear
11:53 AM -2.2 °F - -9.4 °F 71% 30.44 in 10.0 mi Calm Calm - N/A   Clear
12:13 PM -0.4 °F - -7.6 °F 72% 30.43 in 10.0 mi Calm Calm - N/A   Clear
12:33 PM -0.4 °F - -9.4 °F 66% 30.42 in 10.0 mi Calm Calm - N/A   Clear
12:54 PM -0.4 °F - -7.6 °F 72% 30.42 in 10.0 mi Calm Calm - N/A   Clear
1:13 PM 1.4 °F - -7.6 °F 66% 30.41 in 10.0 mi Calm Calm - N/A   Clear
1:33 PM 1.4 °F - -7.6 °F 66% 30.41 in 10.0 mi Calm Calm - N/A   Clear
1:54 PM 1.4 °F - -5.8 °F 72% 30.41 in 10.0 mi Calm Calm - N/A   Clear
2:13 PM 1.4 °F - -7.6 °F 66% 30.41 in 10.0 mi Calm Calm - N/A   Clear
2:33 PM 3.2 °F - -5.8 °F 66% 30.41 in 10.0 mi Calm Calm - N/A   Clear
2:53 PM 1.4 °F - -5.8 °F 72% 30.42 in 10.0 mi Calm Calm - N/A   Clear
3:13 PM 3.2 °F - -5.8 °F 66% 30.42 in 10.0 mi Calm Calm - N/A   Clear
3:34 PM 1.4 °F - -5.8 °F 72% 30.43 in 10.0 mi Calm Calm - N/A   Clear
3:53 PM 1.4 °F - -5.8 °F 72% 30.43 in 10.0 mi Calm Calm - N/A   Clear
4:13 PM 1.4 °F - -5.8 °F 72% 30.42 in 10.0 mi Calm Calm - N/A   Clear
4:33 PM 1.4 °F - -5.8 °F 72% 30.42 in 10.0 mi Calm Calm - N/A   Clear
4:53 PM 1.4 °F - -5.8 °F 72% 30.42 in 10.0 mi Calm Calm - N/A   Clear
5:14 PM 1.4 °F -6.2 °F -5.8 °F 72% 30.41 in 10.0 mi East 3.5 mph - N/A   Clear
5:33 PM 1.4 °F -6.2 °F -5.8 °F 72% 30.41 in 10.0 mi ESE 3.5 mph - N/A   Clear
5:53 PM 1.4 °F -8.3 °F -5.8 °F 72% 30.40 in 10.0 mi ESE 4.6 mph - N/A   Clear
6:13 PM 1.4 °F -6.2 °F -5.8 °F 72% 30.40 in 10.0 mi ESE 3.5 mph - N/A   Clear
6:33 PM -2.2 °F -10.4 °F -7.6 °F 78% 30.41 in 10.0 mi SE 3.5 mph - N/A   Clear
6:53 PM -2.2 °F -12.5 °F -7.6 °F 78% 30.41 in 10.0 mi SSE 4.6 mph - N/A   Clear
7:14 PM -2.2 °F -14.2 °F -7.6 °F 78% 30.41 in 10.0 mi SSE 5.8 mph - N/A   Clear
7:33 PM -2.2 °F -14.2 °F -7.6 °F 78% 30.41 in 10.0 mi SSE 5.8 mph - N/A   Clear
7:53 PM -4.0 °F -16.3 °F -7.6 °F 85% 30.41 in 10.0 mi SSE 5.8 mph - N/A   Clear
8:14 PM -4.0 °F -16.3 °F -9.4 °F 78% 30.40 in 10.0 mi SE 5.8 mph - N/A   Scattered Clouds
8:33 PM -2.2 °F -15.6 °F -7.6 °F 78% 30.40 in 10.0 mi SE 6.9 mph - N/A   Mostly Cloudy
8:53 PM -2.2 °F -14.2 °F -7.6 °F 78% 30.39 in 10.0 mi SE 5.8 mph - N/A   Overcast
9:13 PM -0.4 °F -13.4 °F -5.8 °F 78% 30.40 in 10.0 mi SSE 6.9 mph - N/A   Overcast
9:33 PM 1.4 °F -13.5 °F -5.8 °F 72% 30.38 in 10.0 mi SE 9.2 mph - N/A   Overcast
9:53 PM 1.4 °F -14.5 °F -5.8 °F 72% 30.37 in 10.0 mi SE 10.4 mph - N/A   Overcast
10:13 PM 1.4 °F -15.3 °F -5.8 °F 72% 30.37 in 10.0 mi SSE 11.5 mph - N/A   Overcast
10:33 PM 1.4 °F -15.3 °F -5.8 °F 72% 30.37 in 10.0 mi SSE 11.5 mph - N/A   Overcast
10:53 PM 1.4 °F -15.3 °F -5.8 °F 72% 30.37 in 10.0 mi SE 11.5 mph - N/A   Overcast
11:13 PM 1.4 °F -15.3 °F -5.8 °F 72% 30.36 in 10.0 mi SSE 11.5 mph - N/A   Overcast
11:33 PM 1.4 °F -17.6 °F -5.8 °F 72% 30.34 in 10.0 mi SE 15.0 mph - N/A   Overcast
11:53 PM 3.2 °F -13.9 °F -5.8 °F 66% 30.34 in 10.0 mi SSE 12.7 mph - N/A   Overcast